Regional Weather Roundup
Issued by NWS

Home | Current Version | Previous Version | Text Only | Print | Product List | Glossary On
Versions: 1 2 3 4 5 6 7 8 9 10 11 12 13 14 15 16 17 18 19 20 21 22 23 24 25 26 27 28 29 30 31 32 33 34 35 36 37 38 39 40 41 42 43 44 45 46 47 48 49 50
699
ASHW40 PHFO 080343
RWRHI

WEATHER ROUNDUP FOR HAWAII
NATIONAL WEATHER SERVICE HONOLULU HI
500 PM HST WED DEC 07 2016

THIS IS AN AUTOMATED REPORT THAT HAS NOT BEEN QUALITY CONTROLLED.

NOTE..."FAIR" INDICATES FEW OR NO CLOUDS BELOW 12,000 FEET WITH NO
SIGNIFICANT WEATHER AND/OR OBSTRUCTIONS TO VISIBILITY.

* - THESE SITES REPORT LIMITED FIELDS

HIZ001>004-080400-
KAUAI-NIIHAU-

CITY           SKY/WX    TMP DP  RH WIND       PRES   REMARKS
LIHUE APT      CLOUDY    78  70  76 NE7       29.92S
PORT ALLEN*      N/A     79 N/A N/A SE14        N/A
POIPU*           N/A     77 N/A N/A E6          N/A
PRINCEVILLE*     N/A     77 N/A N/A E6          N/A
KOKOLE POINT*  NOT AVBL
MOLOAA DAIRY*    N/A     75  70  83 E3          N/A
WAIMEA HTS*      N/A     75  68  78 S5G12       N/A
PUU OPAE*      NOT AVBL
PUU LUA*       NOT AVBL
MAKAHA RIDGE*    N/A     72  63  73 CALM        N/A
$$

HIZ005>011-080400-
OAHU-

CITY           SKY/WX    TMP DP  RH WIND       PRES   REMARKS
HONOLULU       CLOUDY    79  68  69 N8        29.90R
KALAELOA       CLOUDY    79  70  73 NW8       29.92R
KANEOHE MCB    NOT AVBL
WHEELER FIELD  FAIR      75  72  88 VRB3      29.92
BELLOWS*         N/A    N/A N/A N/A NE7         N/A
KAHUKU*          N/A    N/A N/A N/A E5          N/A
WHEELER*         N/A    N/A N/A N/A NE5         N/A
WAIANAE HARBOR   N/A    N/A N/A N/A W7          N/A
DILLINGHAM*      N/A     81  68  65 MISG        N/A
KAHUKU TRN*      N/A     75  72  88 NW3G12      N/A
KAWAILOA*        N/A     72  66  83 E5G17       N/A
KII*             N/A     77  72  83 E9          N/A
MAKUA RANGE*     N/A     81  72  74 SW3G12      N/A
OAHU FOREST NW NOT AVBL
SCHOFIELD BRK*   N/A     73  68  83 MISG        N/A
SCHOFIELD S*   NOT AVBL
WAIANAE VLY*   NOT AVBL
KUAOKALA*      NOT AVBL
HONOULIUULI*   NOT AVBL
MOKUOLOE IS*   NOT AVBL
PALEHUA*         N/A    N/A N/A N/A CALM        N/A
WAIAWA PHB*    NOT AVBL
$$

HIZ012>013-080400-
MOLOKAI-

CITY           SKY/WX    TMP DP  RH WIND       PRES   REMARKS
MOLOKAI AIRPT  PTCLDY    78  70  76 NE8       29.91R
KALAUPAPA      NOT AVBL
MAKAPULAPAI*     N/A     77  72  83 E12         N/A
MOLOKAI 1*     NOT AVBL
PUU ALII*        N/A     64  64  98 CALM        N/A
$$

HIZ016-080400-
KAHOOLAWE-

CITY           SKY/WX    TMP DP  RH WIND       PRES   REMARKS
KAHOOLAWE*       N/A     72 N/A N/A E1          N/A
HAKIOAWA*        N/A     75  72  89 MISG      30.33R
HONOKANAIA*      N/A     80  71  74 E12G21    29.82R
KANELOA*         N/A     77  72  83 E15G24    29.94S
KEALIALALO*    NOT AVBL
LUA MAKIKA*    NOT AVBL
$$

HIZ014>015-080400-
LANAI-

CITY           SKY/WX    TMP DP  RH WIND       PRES   REMARKS
LANAI CITY       N/A     73  70  88 NW6       29.97R
LANAI 1*       NOT AVBL
$$

HIZ017>028-080400-
MAUI-

CITY           SKY/WX    TMP DP  RH WIND       PRES   REMARKS
KAHULUI        PTCLDY    79  72  79 NE18      29.89R
KAPALUA-W MAUI NOT AVBL
HANA AIRPORT     N/A     75  72  88 E8        29.95R
HANA*            N/A     77 N/A N/A SE5         N/A
HALEAKALA SUMM   N/A     46  34  61 S6          N/A
MAALAEA BAY*     N/A     79 N/A N/A N15G22      N/A
HALEAKALA*     NOT AVBL
KAUPO GAP*       N/A     75  75 100 SE1G8       N/A
KULA 1*          N/A     58  56  93 NW3         N/A
$$

HIZ023>026-080400-
BIG ISLAND OF HAWAII COAST AND LOWER SLOPES-

CITY           SKY/WX    TMP DP  RH WIND       PRES   REMARKS
KAILUA KONA    PTCLDY    80  73  79 S16       29.86R
HILO           CLOUDY    76  70  82 S5        29.92R
HONOKAA*         N/A     72 N/A N/A VRB1        N/A
KAWAIHAE MWT*    N/A     82 N/A N/A NW5         N/A
KAWAIHAE*        N/A     79 N/A N/A W3        29.88R
SOUTH POINT*     N/A     70 N/A N/A N14G20      N/A
UPOLU AIRPORT* NOT AVBL
KAMUELA*       PTCLDY    70  64  83 NE6       30.01S
HAKALAU*       NOT AVBL
KALOKO-HONOKO*   N/A     79  72  78 SE8       29.87R
PALI 2*          N/A     66  66 100 W6G12       N/A
KEALAKOMO*       N/A     79  70  73 NE9         N/A
KAUPULEHU*       N/A     79  64  61 N6          N/A
KAPAPALA*      NOT AVBL
LOWER KAHUKU*    N/A     64  64 100 NE2G12      N/A
PUHE CS*         N/A     81  70  69 W3          N/A
PUHO CS*         N/A     81  72  74 S3          N/A
PTA KEAMUKU*     N/A     70  63  78 CALM        N/A
WAIKOLOA*        N/A     75  68  78 NE3         N/A
$$

HIZ027>028-080400-
BIG ISLAND OF HAWAII INTERIOR AND SUMMMITS-

CITY           SKY/WX    TMP DP  RH WIND       PRES   REMARKS
BRADSHAW FIELD MOCLDY    61  55  82 SE3       30.25R
MK VISITOR CEN   N/A     48  46  93 E1          N/A
MAUNA KEA*       N/A     34  28  80 SW26        N/A  WCI  21
MAUNA LOA*       N/A     45  41  87 MISG        N/A
MAUNA LOA 1*   NOT AVBL
PTA KIPUKA*      N/A     70  64  83 NW2G9       N/A
PTA RANGE 17*    N/A     66  61  82 NW5G12      N/A
PTA WEST*        N/A     66  63  88 NW3G10      N/A
NENE CABIN*      N/A     55  55 100 E5G10       N/A
AHUMOA*          N/A     58  57  97 E1G9        N/A
PTA PORTABLE*  NOT AVBL
PUU MALI*        N/A     61  57  88 NW3         N/A
$$

HIC003-080400-
NORTHWEST ISLANDS-

CITY           SKY/WX    TMP DP  RH WIND       PRES   REMARKS
MIDWAY ISLAND  MOSUNNY   72  59  64 N6        30.00R
MIDWAY NOS*      N/A     72 N/A N/A MISG      29.97R
FRENCH FRIGATE NOT AVBL
$$

PHZ110>124-180-080400-
BUOY REPORTS

STATION/POSITION TIME  TEMP    WIND        PRES    WAVE   SWELL
                       AIR SEA DIR/SP/G            HT/PER HT/DIR
                 (UTC) (F)     (DEG/KT/KT) (MB)    (FT/S) (FT/D)
BUOY 51001       0320   76 77  180/ 14/ 17 1011.1
BUOY 51101       0250   76 77  180/ 14/ 16 1011.8R   8/15   7/320
BUOY 51100       NOT AVBL
BUOY 51002       0320   77 78  100/ 12/ 16 1011.1
BUOY 51003       0250   78 80   70/  6/  8 1011.4R   6/16   7/320
BUOY 51004       0250   76 79   90/ 16/ 17 1012.1R   6/ 8   5/ 90
BARBERS PT BUOY  NOT AVBL
WAIMEA BAY BUOY  NOT AVBL
KAILUA BAY BUOY  0304      78                N/A     6/11   3/360
LANAI BUOY       0315      79                N/A     3/15   2/300
BARBERS PT 2     0309      79                N/A     4/14   2/310
PAUWELA MAUI     0309      78                N/A     6/15   3/320
HILO             0312      78                N/A     6/17   3/340
KANEOHE BAY BUOY 0306      78                N/A     5/11   3/ 10
HANALEI KAUAI    0322      78                N/A     7/15   5/310
KAHULUI HARBOR   0306   77 78   10/ 11/ 14 1012.6
HONOLULU HARBOR  0306   79 78   50/  5/  9 1013.2
KILO NALU        NOT AVBL
HILO HARBOR      0306   77 76  160/  6/  9 1013.0
MOKUOLOE         0236   77     100/  3/  6   N/A
NAWILIWILI       0318      78                N/A
WHOTS BUOY       NOT AVBL
BUOY 51028       NOT AVBL
$$

......................KEY........................................
  SKY/WX - SKY CONDITIONS/PRESENT WEATHER
  TMP    - TEMPERATURE IN FAHRENHEIT
  DWPT   - DEWPOINT IN FAHRENHEIT
  RH     - RELATIVE HUMIDITY IN PERCENT
  WIND   - DIRECTION AND SPEED /MPH FOR ISLANDS...KTS FOR BUOYS/
  PRES   - MEAN SEA LEVEL PRESSURE IN INCHES OF HG
  VSB    - VISIBILITY IN MILES
  HX     - HEAT INDEX
  WCI    - WIND CHILL INDEX
  VRB    - VARIABLE WIND DIRECTION
  N/A    - NOT AVAILABLE




USA.gov is the U.S. government's official web portal to all federal, state and local government web resources and services.